Location: Honolulu
(21.3069°N, 157.8583°W)
Time: 05:59:23
(UTC-10:00)

Tiros 1 despin weight - Pass Details

Date: 15 May 2026
Orbit: 554 x 591 km, 48.2° (Epoch: 10 June)

Event Time Altitude Azimuth Distance (km) Brightness Sun altitude
Exits shadow 05:11:25 - 283° (WNW) 2,096 ? -9.8°
Reaches altitude 10° 05:12:31 10° 295° (WNW) 1,856 ? -9.6°
Maximum altitude 05:14:32 13° 324° (NW) 1,663 ? -9.1°
Drops below altitude 10° 05:16:32 10° 352° (N) 1,847 ? -8.7°
Sets 05:19:55 0° 21° (NNE) 2,736 ? -8.0°
